Location: *
(43.7000°S, 168.7000°W)
Time: 14:23:16
(UTC+00:00)

Cosmos 2369 - Pass Details

Date: 07 July 2020
Orbit: 839 x 857 km, 71.0° (Epoch: 04 August)

Event Time Altitude Azimuth Distance (km) Brightness Sun altitude
Rises 17:14:19 0° 339° (NNW) 3,418 6.8 -16.3°
Reaches altitude 10° 17:16:46 10° 339° (NNW) 2,488 6.1 -15.9°
Maximum altitude 17:22:30 84° 67° (ENE) 871 3.8 -14.9°
Drops below altitude 10° 17:28:17 10° 154° (SSE) 2,506 6.3 -13.9°
Sets 17:30:45 0° 154° (SSE) 3,445 7.0 -13.4°
